����������;��������(kWh)
2015-07-20 00:00;94,7
2015-07-20 00:15;85,15
2015-07-20 00:30;82,4
2015-07-20 00:45;80,55
2015-07-20 01:00;80,75
2015-07-20 01:15;82
2015-07-20 01:30;89
2015-07-20 01:45;80,2
2015-07-20 02:00;80,15
2015-07-20 02:15;81,75
2015-07-20 02:30;82,7
2015-07-20 02:45;85,35
2015-07-20 03:00;79,55
2015-07-20 03:15;80,1
2015-07-20 03:30;80,15
2015-07-20 03:45;79,15
2015-07-20 04:00;84,35
2015-07-20 04:15;81,8
2015-07-20 04:30;78,95
2015-07-20 04:45;78,35
2015-07-20 05:00;84,65
2015-07-20 05:15;91
2015-07-20 05:30;91,45
2015-07-20 05:45;91,95
2015-07-20 06:00;86,85
2015-07-20 06:15;80,45
2015-07-20 06:30;78,4
2015-07-20 06:45;81,6
2015-07-20 07:00;87,35
2015-07-20 07:15;87,15
2015-07-20 07:30;88,15
2015-07-20 07:45;122,05
2015-07-20 08:00;180,95
2015-07-20 08:15;176,35
2015-07-20 08:30;159,85
2015-07-20 08:45;135,1
2015-07-20 09:00;139
2015-07-20 09:15;142,95
2015-07-20 09:30;160,5
2015-07-20 09:45;160,65
2015-07-20 10:00;155,7
2015-07-20 10:15;181,4
2015-07-20 10:30;187,95
2015-07-20 10:45;180,2
2015-07-20 11:00;197,7
2015-07-20 11:15;205,75
2015-07-20 11:30;214,8
2015-07-20 11:45;208
2015-07-20 12:00;207,65
2015-07-20 12:15;202,4
2015-07-20 12:30;221,3
2015-07-20 12:45;231,15
2015-07-20 13:00;210,75
2015-07-20 13:15;214,85
2015-07-20 13:30;204,85
2015-07-20 13:45;227,15
2015-07-20 14:00;218,55
2015-07-20 14:15;197,3
2015-07-20 14:30;195,8
2015-07-20 14:45;202,7
2015-07-20 15:00;192,95
2015-07-20 15:15;185,05
2015-07-20 15:30;173,25
2015-07-20 15:45;173,95
2015-07-20 16:00;168,5
2015-07-20 16:15;149,7
2015-07-20 16:30;143,8
2015-07-20 16:45;142,65
2015-07-20 17:00;146,9
2015-07-20 17:15;136,7
2015-07-20 17:30;132,65
2015-07-20 17:45;126,85
2015-07-20 18:00;139,25
2015-07-20 18:15;124,55
2015-07-20 18:30;119,65
2015-07-20 18:45;117,8
2015-07-20 19:00;114,2
2015-07-20 19:15;118,3
2015-07-20 19:30;111,15
2015-07-20 19:45;107,6
2015-07-20 20:00;105,6
2015-07-20 20:15;110,5
2015-07-20 20:30;100,7
2015-07-20 20:45;95,05
2015-07-20 21:00;97,8
2015-07-20 21:15;99,7
2015-07-20 21:30;102,2
2015-07-20 21:45;94,95
2015-07-20 22:00;95,95
2015-07-20 22:15;93,8
2015-07-20 22:30;89,2
2015-07-20 22:45;95,25
2015-07-20 23:00;92,45
2015-07-20 23:15;89,6
2015-07-20 23:30;88
2015-07-20 23:45;91,7
2015-07-21 00:00;96,6
2015-07-21 00:15;82,7
2015-07-21 00:30;83,2
2015-07-21 00:45;81,2
2015-07-21 01:00;82,1
2015-07-21 01:15;87,3
2015-07-21 01:30;84,6
2015-07-21 01:45;80,6
2015-07-21 02:00;80,6
2015-07-21 02:15;80,75
2015-07-21 02:30;80,35
2015-07-21 02:45;86,4
2015-07-21 03:00;79,4
2015-07-21 03:15;80
2015-07-21 03:30;80,45
2015-07-21 03:45;78,9
2015-07-21 04:00;96,55
2015-07-21 04:15;88,3
2015-07-21 04:30;84,05
2015-07-21 04:45;80,35
2015-07-21 05:00;92,15
2015-07-21 05:15;93,25
2015-07-21 05:30;93,3
2015-07-21 05:45;84,65
2015-07-21 06:00;90,2
2015-07-21 06:15;82,75
2015-07-21 06:30;80,95
2015-07-21 06:45;77,55
2015-07-21 07:00;83,1
2015-07-21 07:15;83,5
2015-07-21 07:30;89
2015-07-21 07:45;121,05
2015-07-21 08:00;181,45
2015-07-21 08:15;189,7
2015-07-21 08:30;148,2
2015-07-21 08:45;147,7
2015-07-21 09:00;151,15
2015-07-21 09:15;160,3
2015-07-21 09:30;173,8
2015-07-21 09:45;155,25
2015-07-21 10:00;177,65
2015-07-21 10:15;184,65
2015-07-21 10:30;198
2015-07-21 10:45;199,8
2015-07-21 11:00;196,85
2015-07-21 11:15;215,5
2015-07-21 11:30;211,85
2015-07-21 11:45;209,45
2015-07-21 12:00;224,5
2015-07-21 12:15;217,15
2015-07-21 12:30;225
2015-07-21 12:45;230,75
2015-07-21 13:00;213,05
2015-07-21 13:15;225,9
2015-07-21 13:30;234,6
2015-07-21 13:45;225,4
2015-07-21 14:00;218,7
2015-07-21 14:15;203,9
2015-07-21 14:30;208,25
2015-07-21 14:45;195,15
2015-07-21 15:00;192,3
2015-07-21 15:15;182,9
2015-07-21 15:30;183,25
2015-07-21 15:45;177,1
2015-07-21 16:00;162,05
2015-07-21 16:15;152,5
2015-07-21 16:30;150,95
2015-07-21 16:45;150,5
2015-07-21 17:00;145,4
2015-07-21 17:15;135,55
2015-07-21 17:30;131,3
2015-07-21 17:45;139,5
2015-07-21 18:00;123,5
2015-07-21 18:15;123,7
2015-07-21 18:30;114,45
2015-07-21 18:45;114,2
2015-07-21 19:00;110,15
2015-07-21 19:15;112,8
2015-07-21 19:30;108,2
2015-07-21 19:45;107,05
2015-07-21 20:00;110,8
2015-07-21 20:15;101,15
2015-07-21 20:30;97,5
2015-07-21 20:45;90,85
2015-07-21 21:00;91,65
2015-07-21 21:15;95,6
2015-07-21 21:30;92,65
2015-07-21 21:45;87,45
2015-07-21 22:00;88,6
2015-07-21 22:15;84,35
2015-07-21 22:30;90,5
2015-07-21 22:45;87,65
2015-07-21 23:00;84,95
2015-07-21 23:15;89,55
2015-07-21 23:30;93,8
2015-07-21 23:45;98,45
2015-07-22 00:00;99,7
2015-07-22 00:15;83,5
2015-07-22 00:30;84,75
2015-07-22 00:45;82,2
2015-07-22 01:00;83,25
2015-07-22 01:15;84,45
2015-07-22 01:30;80,9
2015-07-22 01:45;80,7
2015-07-22 02:00;80,5
2015-07-22 02:15;81,1
2015-07-22 02:30;87,6
2015-07-22 02:45;79,4
2015-07-22 03:00;82,2
2015-07-22 03:15;79
2015-07-22 03:30;78,65
2015-07-22 03:45;83,15
2015-07-22 04:00;85,05
2015-07-22 04:15;88,3
2015-07-22 04:30;88,35
2015-07-22 04:45;84,7
2015-07-22 05:00;83,65
2015-07-22 05:15;89,55
2015-07-22 05:30;86,55
2015-07-22 05:45;84,7
2015-07-22 06:00;83,15
2015-07-22 06:15;85,3
2015-07-22 06:30;81,35
2015-07-22 06:45;79,6
2015-07-22 07:00;77,85
2015-07-22 07:15;84,7
2015-07-22 07:30;79,85
2015-07-22 07:45;113,5
2015-07-22 08:00;179,45
2015-07-22 08:15;172,7
2015-07-22 08:30;148,35
2015-07-22 08:45;136,05
2015-07-22 09:00;141,6
2015-07-22 09:15;153,5
2015-07-22 09:30;150,1
2015-07-22 09:45;165,4
2015-07-22 10:00;167,25
2015-07-22 10:15;174,7
2015-07-22 10:30;175,65
2015-07-22 10:45;186,55
2015-07-22 11:00;200,55
2015-07-22 11:15;195,45
2015-07-22 11:30;226,25
2015-07-22 11:45;216,8
2015-07-22 12:00;205,95
2015-07-22 12:15;214,7
2015-07-22 12:30;207,45
2015-07-22 12:45;220
2015-07-22 13:00;213,5
2015-07-22 13:15;220,85
2015-07-22 13:30;227,9
2015-07-22 13:45;227,5
2015-07-22 14:00;212,9
2015-07-22 14:15;203,05
2015-07-22 14:30;198,8
2015-07-22 14:45;214,35
2015-07-22 15:00;200,75
2015-07-22 15:15;190
2015-07-22 15:30;178,2
2015-07-22 15:45;179,4
2015-07-22 16:00;163,7
2015-07-22 16:15;153
2015-07-22 16:30;145
2015-07-22 16:45;144,35
2015-07-22 17:00;138,75
2015-07-22 17:15;136,55
2015-07-22 17:30;135,25
2015-07-22 17:45;134,8
2015-07-22 18:00;131,45
2015-07-22 18:15;123,85
2015-07-22 18:30;121,4
2015-07-22 18:45;125,55
2015-07-22 19:00;117,85
2015-07-22 19:15;116,9
2015-07-22 19:30;107,6
2015-07-22 19:45;110,95
2015-07-22 20:00;106,15
2015-07-22 20:15;101,75
2015-07-22 20:30;102,95
2015-07-22 20:45;96,1
2015-07-22 21:00;99,8
2015-07-22 21:15;105
2015-07-22 21:30;94,45
2015-07-22 21:45;92,95
2015-07-22 22:00;88,7
2015-07-22 22:15;88,75
2015-07-22 22:30;91,45
2015-07-22 22:45;86,3
2015-07-22 23:00;86,95
2015-07-22 23:15;88,25
2015-07-22 23:30;90,8
2015-07-22 23:45;91,75
2015-07-23 00:00;94,5
2015-07-23 00:15;83,1
2015-07-23 00:30;82,9
2015-07-23 00:45;86,25
2015-07-23 01:00;82,25
2015-07-23 01:15;81,75
2015-07-23 01:30;82,6
2015-07-23 01:45;82,95
2015-07-23 02:00;86,45
2015-07-23 02:15;86,2
2015-07-23 02:30;81,5
2015-07-23 02:45;79,9
2015-07-23 03:00;79,75
2015-07-23 03:15;78,2
2015-07-23 03:30;84,65
2015-07-23 03:45;77,6
2015-07-23 04:00;79,7
2015-07-23 04:15;77,55
2015-07-23 04:30;81,5
2015-07-23 04:45;83,85
2015-07-23 05:00;87,4
2015-07-23 05:15;86,9
2015-07-23 05:30;85,1
2015-07-23 05:45;82,8
2015-07-23 06:00;80,1
2015-07-23 06:15;85,5
2015-07-23 06:30;75,9
2015-07-23 06:45;75,3
2015-07-23 07:00;77,25
2015-07-23 07:15;79,05
2015-07-23 07:30;89,1
2015-07-23 07:45;125
2015-07-23 08:00;130,25
2015-07-23 08:15;126,25
2015-07-23 08:30;128,3
2015-07-23 08:45;134,2
2015-07-23 09:00;133,85
2015-07-23 09:15;138,1
2015-07-23 09:30;140,35
2015-07-23 09:45;143,3
2015-07-23 10:00;158,9
2015-07-23 10:15;153,85
2015-07-23 10:30;164,85
2015-07-23 10:45;174
2015-07-23 11:00;184,45
2015-07-23 11:15;190,8
2015-07-23 11:30;195,75
2015-07-23 11:45;201,3
2015-07-23 12:00;208,65
2015-07-23 12:15;201,15
2015-07-23 12:30;264,05
2015-07-23 12:45;258,7
2015-07-23 13:00;228,75
2015-07-23 13:15;222,8
2015-07-23 13:30;211,05
2015-07-23 13:45;223,45
2015-07-23 14:00;226,2
2015-07-23 14:15;196,95
2015-07-23 14:30;193,25
2015-07-23 14:45;190,7
2015-07-23 15:00;199,3
2015-07-23 15:15;178,25
2015-07-23 15:30;168,1
2015-07-23 15:45;164,75
2015-07-23 16:00;163,95
2015-07-23 16:15;145
2015-07-23 16:30;133,6
2015-07-23 16:45;126,35
2015-07-23 17:00;138,45
2015-07-23 17:15;123,3
2015-07-23 17:30;120,3
2015-07-23 17:45;124
2015-07-23 18:00;127,15
2015-07-23 18:15;116
2015-07-23 18:30;111,15
2015-07-23 18:45;112,05
2015-07-23 19:00;116,7
2015-07-23 19:15;117,1
2015-07-23 19:30;104,85
2015-07-23 19:45;103,25
2015-07-23 20:00;101,7
2015-07-23 20:15;106,15
2015-07-23 20:30;96,15
2015-07-23 20:45;90,6
2015-07-23 21:00;91,3
2015-07-23 21:15;90,05
2015-07-23 21:30;96,25
2015-07-23 21:45;90,5
2015-07-23 22:00;87,6
2015-07-23 22:15;86,9
2015-07-23 22:30;85
2015-07-23 22:45;95,75
2015-07-23 23:00;90,05
2015-07-23 23:15;89,1
2015-07-23 23:30;87,4
2015-07-23 23:45;92,8
2015-07-24 00:00;100,35
2015-07-24 00:15;91,2
2015-07-24 00:30;84,65
2015-07-24 00:45;84,15
2015-07-24 01:00;82,15
2015-07-24 01:15;86,7
2015-07-24 01:30;86,05
2015-07-24 01:45;81,6
2015-07-24 02:00;81,85
2015-07-24 02:15;82,3
2015-07-24 02:30;84,2
2015-07-24 02:45;86,7
2015-07-24 03:00;82,4
2015-07-24 03:15;81,45
2015-07-24 03:30;80,95
2015-07-24 03:45;82,85
2015-07-24 04:00;89,95
2015-07-24 04:15;80,9
2015-07-24 04:30;82
2015-07-24 04:45;84,5
2015-07-24 05:00;83,15
2015-07-24 05:15;88,95
2015-07-24 05:30;96,65
2015-07-24 05:45;96,35
2015-07-24 06:00;90,2
2015-07-24 06:15;88,5
2015-07-24 06:30;86,7
2015-07-24 06:45;80,35
2015-07-24 07:00;72,9
2015-07-24 07:15;82
2015-07-24 07:30;86,15
2015-07-24 07:45;118,9
2015-07-24 08:00;189,8
2015-07-24 08:15;173,2
2015-07-24 08:30;145,55
2015-07-24 08:45;150,3
2015-07-24 09:00;149,2
2015-07-24 09:15;162,3
2015-07-24 09:30;164,5
2015-07-24 09:45;162,35
2015-07-24 10:00;176,6
2015-07-24 10:15;196,4
2015-07-24 10:30;206,4
2015-07-24 10:45;207,1
2015-07-24 11:00;209,05
2015-07-24 11:15;212,7
2015-07-24 11:30;217,45
2015-07-24 11:45;215
2015-07-24 12:00;219,4
2015-07-24 12:15;204,8
2015-07-24 12:30;221,7
2015-07-24 12:45;221,85
2015-07-24 13:00;193,95
2015-07-24 13:15;212,2
2015-07-24 13:30;228,4
2015-07-24 13:45;201
2015-07-24 14:00;213,1
2015-07-24 14:15;188,5
2015-07-24 14:30;193,15
2015-07-24 14:45;193,25
2015-07-24 15:00;183,4
2015-07-24 15:15;185,2
2015-07-24 15:30;180,05
2015-07-24 15:45;168,35
2015-07-24 16:00;155,2
2015-07-24 16:15;146,3
2015-07-24 16:30;151
2015-07-24 16:45;139,15
2015-07-24 17:00;127,8
2015-07-24 17:15;122,4
2015-07-24 17:30;121,2
2015-07-24 17:45;124,75
2015-07-24 18:00;117,75
2015-07-24 18:15;116,7
2015-07-24 18:30;113,8
2015-07-24 18:45;113,6
2015-07-24 19:00;109,3
2015-07-24 19:15;107,85
2015-07-24 19:30;101
2015-07-24 19:45;102,75
2015-07-24 20:00;105,85
2015-07-24 20:15;101,25
2015-07-24 20:30;100,55
2015-07-24 20:45;90,75
2015-07-24 21:00;93,1
2015-07-24 21:15;100,25
2015-07-24 21:30;94,7
2015-07-24 21:45;93,9
2015-07-24 22:00;95,45
2015-07-24 22:15;86,8
2015-07-24 22:30;90,25
2015-07-24 22:45;83,5
2015-07-24 23:00;82,65
2015-07-24 23:15;84,45
2015-07-24 23:30;86,25
2015-07-24 23:45;92,95
2015-07-25 00:00;90,15
2015-07-25 00:15;80,05
2015-07-25 00:30;78,15
2015-07-25 00:45;77,75
2015-07-25 01:00;86
2015-07-25 01:15;78,95
2015-07-25 01:30;77,45
2015-07-25 01:45;77,85
2015-07-25 02:00;78,4
2015-07-25 02:15;82,05
2015-07-25 02:30;80
2015-07-25 02:45;77,35
2015-07-25 03:00;77,85
2015-07-25 03:15;78,3
2015-07-25 03:30;81,05
2015-07-25 03:45;84,1
2015-07-25 04:00;78,25
2015-07-25 04:15;77,6
2015-07-25 04:30;78
2015-07-25 04:45;79,05
2015-07-25 05:00;81,95
2015-07-25 05:15;76,25
2015-07-25 05:30;78,35
2015-07-25 05:45;76,35
2015-07-25 06:00;74,25
2015-07-25 06:15;78,4
2015-07-25 06:30;73,95
2015-07-25 06:45;70,3
2015-07-25 07:00;73,9
2015-07-25 07:15;71,95
2015-07-25 07:30;74,2
2015-07-25 07:45;100,4
2015-07-25 08:00;95,05
2015-07-25 08:15;88,7
2015-07-25 08:30;87,5
2015-07-25 08:45;92,1
2015-07-25 09:00;93,35
2015-07-25 09:15;90,3
2015-07-25 09:30;88
2015-07-25 09:45;88,1
2015-07-25 10:00;94,25
2015-07-25 10:15;88,2
2015-07-25 10:30;85,7
2015-07-25 10:45;87
2015-07-25 11:00;89,25
2015-07-25 11:15;93,95
2015-07-25 11:30;87,25
2015-07-25 11:45;91,15
2015-07-25 12:00;90,85
2015-07-25 12:15;102,3
2015-07-25 12:30;91,25
2015-07-25 12:45;90,6
2015-07-25 13:00;91,95
2015-07-25 13:15;101,9
2015-07-25 13:30;93,2
2015-07-25 13:45;91,9
2015-07-25 14:00;95,05
2015-07-25 14:15;103,05
2015-07-25 14:30;92,4
2015-07-25 14:45;92,1
2015-07-25 15:00;92,2
2015-07-25 15:15;102,2
2015-07-25 15:30;94,8
2015-07-25 15:45;94,95
2015-07-25 16:00;94,85
2015-07-25 16:15;102,5
2015-07-25 16:30;98,9
2015-07-25 16:45;97,5
2015-07-25 17:00;103,4
2015-07-25 17:15;109,5
2015-07-25 17:30;96,3
2015-07-25 17:45;98,7
2015-07-25 18:00;104,4
2015-07-25 18:15;106,2
2015-07-25 18:30;102,45
2015-07-25 18:45;100,1
2015-07-25 19:00;99,25
2015-07-25 19:15;102,6
2015-07-25 19:30;89,95
2015-07-25 19:45;89,9
2015-07-25 20:00;93,7
2015-07-25 20:15;95,55
2015-07-25 20:30;88,9
2015-07-25 20:45;80,2
2015-07-25 21:00;81,1
2015-07-25 21:15;89
2015-07-25 21:30;84,4
2015-07-25 21:45;82,7
2015-07-25 22:00;82,8
2015-07-25 22:15;83
2015-07-25 22:30;89,1
2015-07-25 22:45;81
2015-07-25 23:00;81,05
2015-07-25 23:15;84,1
2015-07-25 23:30;86,55
2015-07-25 23:45;86,75
2015-07-26 00:00;92,3
2015-07-26 00:15;79,25
2015-07-26 00:30;80,9
2015-07-26 00:45;87,5
2015-07-26 01:00;80,2
2015-07-26 01:15;77,4
2015-07-26 01:30;79,7
2015-07-26 01:45;80,1
2015-07-26 02:00;86,3
2015-07-26 02:15;84,25
2015-07-26 02:30;86,55
2015-07-26 02:45;82,5
2015-07-26 03:00;79,2
2015-07-26 03:15;86,9
2015-07-26 03:30;78,2
2015-07-26 03:45;77,2
2015-07-26 04:00;81,05
2015-07-26 04:15;78,4
2015-07-26 04:30;82,9
2015-07-26 04:45;79,55
2015-07-26 05:00;79
2015-07-26 05:15;75,85
2015-07-26 05:30;76,55
2015-07-26 05:45;84,85
2015-07-26 06:00;77,55
2015-07-26 06:15;74,05
2015-07-26 06:30;70,3
2015-07-26 06:45;70,1
2015-07-26 07:00;77,95
2015-07-26 07:15;71,2
2015-07-26 07:30;70,75
2015-07-26 07:45;72,8
2015-07-26 08:00;68,75
2015-07-26 08:15;79,25
2015-07-26 08:30;74,1
2015-07-26 08:45;74,25
2015-07-26 09:00;76,5
2015-07-26 09:15;84,3
2015-07-26 09:30;74,95
2015-07-26 09:45;78,05
2015-07-26 10:00;77,75
2015-07-26 10:15;85,85
2015-07-26 10:30;20,5
2015-07-26 10:45;0
2015-07-26 11:00;0
2015-07-26 11:15;37,65
2015-07-26 11:30;77,85
2015-07-26 11:45;76
2015-07-26 12:00;76,55
2015-07-26 12:15;82,7
2015-07-26 12:30;78,35
2015-07-26 12:45;78,2
2015-07-26 13:00;83,35
2015-07-26 13:15;81,8
2015-07-26 13:30;72,85
2015-07-26 13:45;72,95
2015-07-26 14:00;79,1
2015-07-26 14:15;77,25
2015-07-26 14:30;74,8
2015-07-26 14:45;73,9
2015-07-26 15:00;82,6
2015-07-26 15:15;78,4
2015-07-26 15:30;74,05
2015-07-26 15:45;75,3
2015-07-26 16:00;78,85
2015-07-26 16:15;79,5
2015-07-26 16:30;73,7
2015-07-26 16:45;75,5
2015-07-26 17:00;86,2
2015-07-26 17:15;86,4
2015-07-26 17:30;80,5
2015-07-26 17:45;78,7
2015-07-26 18:00;84,55
2015-07-26 18:15;86
2015-07-26 18:30;85,35
2015-07-26 18:45;81,45
2015-07-26 19:00;79,75
2015-07-26 19:15;88,85
2015-07-26 19:30;79,35
2015-07-26 19:45;79
2015-07-26 20:00;79,05
2015-07-26 20:15;80,05
2015-07-26 20:30;77,2
2015-07-26 20:45;77,25
2015-07-26 21:00;82
2015-07-26 21:15;85,75
2015-07-26 21:30;83,8
2015-07-26 21:45;82,75
2015-07-26 22:00;80,95
2015-07-26 22:15;84,65
2015-07-26 22:30;81,45
2015-07-26 22:45;77,1
2015-07-26 23:00;77,7
2015-07-26 23:15;84,8
2015-07-26 23:30;85,4
2015-07-26 23:45;90,5

